Bellmunt





Hora UTC 20:20
Temperatura 16.2 ºC
Humitat 80.0 %
Pressió 1017.2 hPa
Pluja 0.0 mm
Velocitat vent 0.0 km/h
Direcció vent N

Dades diàries 2022-08-19



Hora UTC (hivern +1h; estiu +2h)
Temperatura (ºC) Humitat (%) Pressió (hPa) Velocitat vent (km/h) Precipitació (mm)
Hora UTC Aire Humitat Pressió Vel. Dir. Vel. Max Dir. Intent. màx 5 min.
00:05 14.9 63.0 1015.1 0.0 N 0.0 0.0
00:10 14.9 62.0 1015.1 0.0 N 0.0 0.0
00:15 14.8 63.0 1015.2 0.0 N 0.0 0.0
00:20 14.7 64.0 1015.1 0.0 N 0.0 0.0
00:25 14.6 64.0 1015.1 0.0 N 0.0 0.0
00:30 14.6 66.0 1015.2 0.0 N 0.0 0.0
00:35 14.3 66.0 1015.2 0.0 N 0.0 0.0
00:40 14.3 65.0 1015.0 0.0 N 0.0 0.0
00:45 14.4 64.0 1015.0 0.0 N 0.0 0.0
00:50 14.5 64.0 1015.0 0.0 N 0.0 0.0
00:55 14.6 64.0 1015.0 0.0 N 0.0 0.0
01:00 14.8 63.0 1015.0 0.0 N 0.0 0.0
01:05 14.8 63.0 1014.9 0.0 N 0.0 0.0
01:10 14.8 62.0 1014.9 0.0 N 0.0 0.0
01:15 15.1 61.0 1014.8 0.0 N 0.0 0.0
01:20 15.2 61.0 1014.8 0.0 N 0.0 0.0
01:25 15.2 61.0 1014.8 0.0 N 0.0 0.0
01:30 15.1 61.0 1014.9 0.0 N 0.0 0.0
01:35 15.1 62.0 1014.9 0.0 N 0.0 0.0
01:40 14.9 62.0 1014.9 0.0 N 0.0 0.0
01:45 14.8 63.0 1014.9 0.0 N 0.0 0.0
01:50 14.8 63.0 1014.9 0.0 N 0.0 0.0
01:55 14.7 63.0 1015.0 0.0 N 0.0 0.0
02:00 14.6 63.0 1015.1 0.0 N 0.0 0.0
02:05 14.5 64.0 1015.1 0.0 N 0.0 0.0
02:10 14.4 64.0 1015.0 0.0 N 0.0 0.0
02:15 14.3 66.0 1015.0 0.0 N 0.0 0.0
02:20 14.2 64.0 1015.0 0.0 N 0.0 0.0
02:25 14.5 63.0 1015.1 0.0 N 0.0 0.0
02:30 14.7 62.0 1015.1 0.0 N 0.0 0.0
02:35 14.9 61.0 1015.1 0.0 NW 0.0 0.0
02:40 15.0 61.0 1015.1 0.0 NW 0.0 0.0
02:45 15.1 62.0 1015.1 0.0 N 0.0 0.0
02:50 15.0 62.0 1014.9 0.0 N 0.0 0.0
02:55 14.9 63.0 1015.0 0.0 N 0.0 0.0
03:00 14.9 63.0 1015.1 0.0 N 0.0 0.0
03:05 14.8 63.0 1015.1 0.0 N 0.0 0.0
03:10 14.8 63.0 1015.1 0.0 NW 0.0 0.0
03:15 14.9 63.0 1015.1 0.0 N 0.0 0.0
03:20 15.0 62.0 1015.1 0.0 N 0.0 0.0
03:25 15.1 62.0 1015.1 0.0 N 0.0 0.0
03:30 15.1 62.0 1015.1 0.0 N 0.0 0.0
03:35 14.8 63.0 1015.1 0.0 N 0.0 0.0
03:40 14.8 63.0 1015.2 0.0 N 0.0 0.0
03:45 14.8 63.0 1015.2 0.0 N 0.0 0.0
03:50 15.0 62.0 1015.2 0.0 N 0.0 0.0
03:55 15.1 61.0 1015.3 0.0 N 0.0 0.0
04:00 14.9 61.0 1015.3 0.0 N 0.0 0.0
04:05 14.8 62.0 1015.3 0.0 N 0.0 0.0
04:10 14.7 62.0 1015.3 0.0 N 0.0 0.0
04:15 14.6 63.0 1015.3 0.0 N 0.0 0.0
04:20 14.4 63.0 1015.5 0.0 N 0.0 0.0
04:25 14.1 65.0 1015.5 0.0 N 0.0 0.0
04:30 13.9 66.0 1015.5 0.0 N 0.0 0.0
04:35 14.1 65.0 1015.5 0.0 N 0.0 0.0
04:40 14.3 64.0 1015.5 0.0 N 0.0 0.0
04:45 14.6 62.0 1015.6 0.0 N 0.0 0.0
04:50 14.6 62.0 1015.6 0.0 N 0.0 0.0
04:55 14.5 62.0 1015.6 0.0 NW 0.0 0.0
05:00 14.6 63.0 1015.7 0.0 N 0.0 0.0
05:05 14.4 63.0 1015.6 0.0 N 0.0 0.0
05:10 14.4 62.0 1015.6 0.0 N 0.0 0.0
05:15 14.5 62.0 1015.7 0.0 N 0.0 0.0
05:20 14.6 62.0 1015.8 0.0 N 0.0 0.0
05:25 14.7 62.0 1015.8 0.0 N 0.0 0.0
05:30 14.9 61.0 1016.0 0.0 N 0.0 0.0
05:35 15.1 59.0 1016.0 0.0 N 0.0 0.0
05:40 15.2 58.0 1015.9 0.0 N 0.0 0.0
05:45 15.4 58.0 1016.0 0.0 N 0.0 0.0
05:50 15.3 59.0 1016.1 0.0 N 0.0 0.0
05:55 15.2 60.0 1016.2 0.0 N 0.0 0.0
06:00 14.9 60.0 1016.2 0.0 N 0.0 0.0
06:05 14.9 60.0 1016.2 0.0 N 0.0 0.0
06:10 15.1 59.0 1016.2 0.0 N 0.0 0.0
06:15 15.2 59.0 1016.2 0.0 N 0.0 0.0
06:20 14.9 60.0 1016.2 0.0 N 0.0 0.0
06:25 14.8 60.0 1016.1 0.0 N 0.0 0.0
06:30 14.9 59.0 1016.2 0.0 N 0.0 0.0
06:35 15.1 59.0 1016.3 0.0 N 0.0 0.0
06:40 15.2 58.0 1016.3 0.0 N 0.0 0.0
06:45 15.2 58.0 1016.4 0.0 N 0.0 0.0
06:50 15.3 58.0 1016.5 0.0 N 0.0 0.0
06:55 15.5 57.0 1016.5 0.0 N 0.0 0.0
07:00 15.4 58.0 1016.4 0.0 N 0.0 0.0
07:05 15.3 59.0 1016.5 0.0 N 0.0 0.0
07:10 15.2 59.0 1016.5 0.0 N 0.0 0.0
07:15 15.3 58.0 1016.5 0.0 N 0.0 0.0
07:20 15.5 58.0 1016.7 0.0 N 0.0 0.0
07:25 15.7 59.0 1016.8 0.0 N 0.0 0.0
07:30 15.9 55.0 1016.7 0.0 WNW 0.0 0.0
07:35 16.2 54.0 1016.8 0.0 N 0.0 0.0
07:40 16.4 53.0 1016.9 0.0 N 0.0 0.0
07:45 16.9 54.0 1016.9 0.0 N 0.0 0.0
07:50 17.5 49.0 1016.9 0.0 N 0.0 0.0
07:55 17.9 56.0 1016.8 0.0 N 0.0 0.0
08:00 18.1 50.0 1016.8 0.0 N 0.0 0.0
08:05 18.4 54.0 1016.8 0.0 N 0.0 0.0
08:10 18.8 51.0 1016.8 0.0 N 0.0 0.0
08:15 18.9 55.0 1016.8 0.0 N 0.0 0.0
08:20 18.9 60.0 1016.8 0.0 W 0.0 0.0
08:25 18.9 58.0 1016.9 0.0 W 0.0 0.0
08:30 19.0 66.0 1016.8 0.0 N 0.0 0.0
08:35 18.4 66.0 1016.8 0.0 N 0.0 0.0
08:40 18.2 60.0 1016.8 0.0 N 0.0 0.0
08:45 18.6 59.0 1016.7 0.0 N 0.0 0.0
08:50 18.8 64.0 1016.8 0.0 N 0.0 0.0
08:55 18.6 70.0 1016.8 0.0 S 0.0 0.0
09:00 18.2 71.0 1016.8 0.0 N 0.0 0.0
09:05 18.1 74.0 1016.9 0.0 N 0.0 0.0
09:10 18.2 73.0 1016.8 0.0 N 0.0 0.0
09:15 18.2 71.0 1016.8 0.0 N 0.0 0.0
09:20 18.3 60.0 1016.9 0.0 N 0.0 0.0
09:25 18.4 71.0 1016.9 0.0 N 0.0 0.0
09:30 17.1 77.0 1016.9 0.0 N 0.0 0.0
09:35 16.8 75.0 1016.9 0.0 N 0.0 0.0
09:40 17.2 75.0 1016.8 0.0 N 0.0 0.0
09:45 17.9 65.0 1016.9 0.0 N 0.0 0.0
09:50 18.6 68.0 1016.9 0.0 N 0.0 0.0
09:55 19.0 67.0 1017.0 0.0 N 0.0 0.0
10:00 18.9 68.0 1017.1 0.0 N 0.0 0.0
10:05 19.1 71.0 1017.2 0.0 N 0.0 0.0
10:10 18.9 71.0 1017.1 0.0 N 0.0 0.0
10:15 18.8 69.0 1017.2 0.0 S 0.0 0.0
10:20 19.0 70.0 1017.1 0.0 N 0.0 0.0
10:25 19.3 70.0 1017.1 0.0 N 0.0 0.0
10:30 18.7 72.0 1017.1 0.0 S 0.0 0.0
10:35 18.2 72.0 1017.1 0.0 N 0.0 0.0
10:40 18.3 72.0 1017.0 0.0 N 0.0 0.0
10:45 18.8 72.0 1017.0 0.0 N 0.0 0.0
10:50 19.2 70.0 1017.1 0.0 N 0.0 0.0
10:55 19.0 65.0 1017.1 0.0 N 0.0 0.0
11:00 18.6 71.0 1017.1 0.0 N 0.0 0.0
11:05 18.6 70.0 1017.1 0.0 N 1.6 0.0
11:10 18.6 69.0 1017.1 0.0 SSW 1.6 0.0
11:15 18.4 70.0 1017.1 0.0 ENE 0.0 0.0
11:20 19.0 67.0 1017.1 0.0 N 0.0 0.0
11:25 19.4 63.0 1017.1 0.0 N 0.0 0.0
11:30 19.3 63.0 1017.0 0.0 N 0.0 0.0
11:35 19.7 60.0 1017.2 0.0 N 0.0 0.0
11:40 19.3 60.0 1017.1 0.0 N 0.0 0.0
11:45 18.9 59.0 1017.1 0.0 N 0.0 0.0
11:50 18.9 59.0 1017.1 0.0 N 1.6 0.0
11:55 19.4 59.0 1017.0 0.0 N 1.6 0.0
12:00 19.8 59.0 1017.0 0.0 N 0.0 0.0
12:05 19.7 57.0 1016.9 0.0 N 3.2 0.0
12:10 19.3 57.0 1016.9 0.0 N 3.2 0.0
12:15 19.5 57.0 1017.0 0.0 N 3.2 0.0
12:20 19.4 57.0 1016.9 0.0 N 1.6 0.0
12:25 19.6 60.0 1016.8 0.0 WSW 0.0 0.0
12:30 19.7 59.0 1016.8 0.0 N 0.0 0.0
12:35 19.8 57.0 1016.8 0.0 N 0.0 0.0
12:40 19.7 59.0 1016.8 0.0 N 3.2 0.0
12:45 19.9 56.0 1016.7 0.0 SSW 0.0 0.0
12:50 20.2 55.0 1016.8 0.0 N 1.6 0.0
12:55 20.3 57.0 1016.8 0.0 N 4.8 0.0
13:00 20.3 56.0 1016.8 0.0 SSE 4.8 0.0
13:05 20.5 57.0 1016.7 0.0 N 1.6 0.0
13:10 20.7 54.0 1016.7 0.0 N 3.2 0.0
13:15 20.9 53.0 1016.6 1.6 N 1.6 0.0
13:20 20.6 53.0 1016.6 0.0 N 1.6 0.0
13:25 20.4 53.0 1016.6 0.0 N 1.6 0.0
13:30 20.8 52.0 1016.6 0.0 N 3.2 0.0
13:35 20.7 54.0 1016.6 0.0 N 3.2 0.0
13:40 20.4 54.0 1016.6 0.0 N 3.2 0.0
13:45 20.8 53.0 1016.6 0.0 N 1.6 0.0
13:50 20.8 55.0 1016.5 0.0 N 1.6 0.0
13:55 21.0 53.0 1016.7 0.0 N 3.2 0.0
14:00 20.7 53.0 1016.6 0.0 N 3.2 0.0
14:05 20.8 53.0 1016.6 0.0 N 0.0 0.0
14:10 21.0 52.0 1016.5 0.0 N 1.6 0.0
14:15 21.0 52.0 1016.5 0.0 N 1.6 0.0
14:20 21.1 51.0 1016.5 0.0 N 1.6 0.0
14:25 21.1 51.0 1016.6 0.0 N 1.6 0.0
14:30 21.3 49.0 1016.4 1.6 N 3.2 0.0
14:35 20.4 49.0 1016.4 0.0 N 6.4 0.0
14:40 20.7 50.0 1016.4 1.6 N 4.8 0.0
14:45 20.8 51.0 1016.4 0.0 N 3.2 0.0
14:50 20.8 51.0 1016.5 0.0 N 1.6 0.0
14:55 20.9 50.0 1016.4 0.0 N 1.6 0.0
15:00 20.9 48.0 1016.3 0.0 WSW 1.6 0.0
15:05 21.1 49.0 1016.4 0.0 N 1.6 0.0
15:10 21.1 49.0 1016.4 0.0 N 1.6 0.0
15:15 21.3 48.0 1016.4 0.0 N 1.6 0.0
15:20 21.4 47.0 1016.3 0.0 N 1.6 0.0
15:25 21.3 49.0 1016.2 0.0 WSW 1.6 0.0
15:30 21.9 47.0 1016.3 0.0 N 1.6 0.0
15:35 21.9 48.0 1016.2 1.6 N 1.6 0.0
15:40 22.1 49.0 1016.3 0.0 N 1.6 0.0
15:45 22.3 48.0 1016.2 0.0 N 3.2 0.0
15:50 22.2 48.0 1016.2 0.0 N 1.6 0.0
15:55 21.8 47.0 1016.2 0.0 N 1.6 0.0
16:00 21.9 48.0 1016.2 0.0 N 1.6 0.0
16:05 21.9 50.0 1016.2 0.0 N 0.0 0.0
16:10 21.9 48.0 1016.1 0.0 N 0.0 0.0
16:15 22.2 49.0 1016.1 0.0 N 0.0 0.0
16:20 22.2 48.0 1016.1 0.0 SW 1.6 0.0
16:25 21.8 50.0 1016.1 0.0 WSW 1.6 0.0
16:30 21.9 49.0 1016.1 0.0 N 0.0 0.0
16:35 22.0 49.0 1016.1 0.0 WSW 0.0 0.0
16:40 21.6 54.0 1016.1 0.0 N 1.6 0.0
16:45 21.5 56.0 1016.1 0.0 N 1.6 0.0
16:50 20.8 57.0 1016.0 0.0 N 3.2 0.0
16:55 20.6 58.0 1016.0 0.0 S 3.2 0.0
17:00 20.3 59.0 1015.9 0.0 N 0.0 0.0
17:05 19.9 61.0 1015.8 0.0 N 1.6 0.0
17:10 19.5 64.0 1015.8 0.0 N 1.6 0.0
17:15 19.2 65.0 1015.8 0.0 N 1.6 0.0
17:20 19.1 65.0 1015.8 0.0 N 0.0 0.0
17:25 18.9 66.0 1015.8 0.0 N 0.0 0.0
17:30 18.8 67.0 1015.8 0.0 E 0.0 0.0
17:35 18.6 68.0 1015.8 0.0 N 0.0 0.0
17:40 18.4 69.0 1015.8 0.0 N 0.0 0.0
17:45 18.3 70.0 1015.8 0.0 N 0.0 0.0
17:50 18.3 71.0 1015.9 0.0 N 0.0 0.0
17:55 18.2 71.0 1015.8 0.0 ESE 0.0 0.0
18:00 18.0 72.0 1016.0 0.0 N 0.0 0.0
18:05 18.1 70.0 1016.0 0.0 N 0.0 0.0
18:10 18.1 73.0 1015.9 0.0 N 1.6 0.0
18:15 17.9 73.0 1015.8 0.0 ESE 1.6 0.0
18:20 17.8 74.0 1016.0 0.0 N 0.0 0.0
18:25 17.8 74.0 1016.0 0.0 N 0.0 0.0
18:30 17.6 75.0 1016.1 0.0 ESE 0.0 0.0
18:35 17.5 75.0 1016.2 0.0 N 0.0 0.0
18:40 17.5 75.0 1016.2 0.0 N 0.0 0.0
18:45 17.4 75.0 1016.2 0.0 N 0.0 0.0
18:50 17.4 76.0 1016.2 0.0 N 0.0 0.0
18:55 17.3 76.0 1016.3 0.0 ESE 1.6 0.0
19:00 17.2 77.0 1016.4 0.0 N 1.6 0.0
19:05 17.1 77.0 1016.4 0.0 N 0.0 0.0
19:10 17.1 77.0 1016.5 0.0 N 0.0 0.0
19:15 17.1 76.0 1016.5 0.0 N 0.0 0.0
19:20 17.1 76.0 1016.6 0.0 N 0.0 0.0
19:25 16.9 77.0 1016.7 0.0 N 0.0 0.0
19:30 16.8 78.0 1016.8 0.0 N 0.0 0.0
19:35 16.7 78.0 1016.8 0.0 N 0.0 0.0
19:40 16.6 79.0 1016.9 0.0 N 0.0 0.0
19:45 16.4 79.0 1017.0 0.0 N 0.0 0.0
19:50 16.3 80.0 1016.9 0.0 N 0.0 0.0
19:50 16.3 81.0 1016.9 0.0 N 0.0 0.0
20:00 16.2 82.0 1017.0 0.0 N 0.0 0.0
20:05 16.1 82.0 1017.0 0.0 N 0.0 0.0
20:10 16.2 81.0 1017.1 0.0 N 0.0 0.0
20:15 16.3 81.0 1017.2 0.0 N 0.0 0.0
20:20 16.2 80.0 1017.2 0.0 N 0.0 0.0
Màxima 22.3 82.0 1017.2 1.6 N 6.4 0.0
Mínima 13.9 47.0 1014.8
Total 0.0